QPF
0.04 0.08 0.19 0.20 0.13 0.12 0.15 0.07 0.02 0.00 0.00 0.01 0.02 0.03 0.05 0.04 0.02 0.00 0.00 0.00 0.00 0.00 0.00 0.00 0.00 0.00 0.00 0.00 0.00 0.01 0.00 0.00 0.00 0.00 0.00 0.00 0.00 0.00 0.00 0.00 0.00 0.00 0.00 0.00
0.05 0.07 0.16 0.17 0.08 0.07 0.06 0.03 0.02 0.01 0.01 0.02 0.05 0.08 0.10 0.07 0.03 0.01 0.01 0.00 0.00 0.00 0.00 0.00 0.00 0.01 0.01 0.02 0.01 0.01 0.00 0.00 0.00 0.00 0.00 0.00 0.00 0.00 0.00 0.00 0.00 0.00 0.00 0.00
0.07 0.03 0.10 0.09 0.05 0.04 0.02 0.01 0.01 0.02 0.02 0.04 0.09 0.12 0.09 0.05 0.03 0.01 0.01 0.01 0.00 0.00 0.00 0.00 0.01 0.02 0.04 0.03 0.01 0.00 0.00 0.00 0.00 0.00 0.00 0.00 0.00 0.00 0.00 0.00 0.00 0.00 0.00 0.00
0.10 0.09 0.16 0.09 0.04 0.03 0.01 0.00 0.00 0.00 0.01 0.02 0.03 0.03 0.03 0.02 0.02 0.01 0.01 0.01 0.01 0.00 0.00 0.00 0.01 0.02 0.02 0.01 0.00 0.00 0.00 0.00 0.00 0.00 0.00 0.00 0.00 0.00 0.00 0.00 0.00 0.00 0.00 0.00
0.13 0.13 0.09 0.04 0.02 0.02 0.01 0.01 0.00 0.00 0.00 0.00 0.00 0.01 0.01 0.01 0.01 0.01 0.01 0.00 0.00 0.00 0.00 0.00 0.01 0.01 0.00 0.00 0.00 0.00 0.00 0.00 0.00 0.00 0.00 0.00 0.00 0.00 0.00 0.00 0.00 0.00 0.00 0.00
0.07 0.07 0.05 0.02 0.01 0.01 0.00 0.00 0.00 0.00 0.00 0.00 0.00 0.00 0.00 0.00 0.00 0.00 0.00 0.00 0.00 0.00 0.00 0.00 0.00 0.00 0.00 0.00 0.00 0.00 0.00 0.00 0.00 0.00 0.00 0.00 0.00 0.00 0.00 0.00 0.00 0.00 0.00 0.00
0.02 0.02 0.01 0.00 0.00 0.00 0.00 0.00 0.00 0.00 0.00 0.00 0.00 0.00 0.00 0.00 0.00 0.00 0.00 0.00 0.00 0.00 0.00 0.00 0.00 0.00 0.00 0.00 0.00 0.00 0.00 0.00 0.00 0.00 0.00 0.00 0.00 0.00 0.00 0.00 0.00 0.00 0.00 0.00
0.00 0.00 0.00 0.00 0.00 0.00 0.00 0.00 0.00 0.00 0.00 0.00 0.00 0.00 0.00 0.00 0.00 0.00 0.00 0.00 0.00 0.00 0.00 0.00 0.00 0.00 0.00 0.00 0.00 0.00 0.00 0.00 0.00 0.00 0.00 0.00 0.00 0.00 0.00 0.00 0.00 0.00 0.00 0.00
0.00 0.00 0.00 0.00 0.00 0.00 0.00 0.00 0.00 0.00 0.00 0.00 0.00 0.00 0.00 0.00 0.00 0.00 0.00 0.00 0.00 0.00 0.00 0.00 0.00 0.00 0.00 0.00 0.00 0.00 0.00 0.00 0.00 0.00 0.00 0.00 0.00 0.00 0.00 0.00 0.00 0.00 0.00 0.00
0.00 0.00 0.00 0.00 0.00 0.00 0.00 0.00 0.00 0.00 0.00 0.00 0.00 0.00 0.00 0.00 0.00 0.00 0.00 0.00 0.00 0.00 0.00 0.00 0.00 0.00 0.00 0.00 0.00 0.00 0.00 0.00 0.00 0.00 0.00 0.00 0.00 0.00 0.00 0.00 0.00 0.00 0.00 0.00
0.00 0.00 0.00 0.00 0.00 0.00 0.00 0.00 0.00 0.00 0.00 0.00 0.00 0.00 0.00 0.00 0.00 0.00 0.00 0.00 0.00 0.00 0.00 0.00 0.00 0.00 0.00 0.00 0.00 0.00 0.00 0.00 0.00 0.00 0.00 0.00 0.00 0.00 0.00 0.00 0.00 0.00 0.00 0.00
0.00 0.00 0.00 0.00 0.00 0.00 0.00 0.00 0.00 0.00 0.00 0.00 0.00 0.00 0.00 0.00 0.00 0.00 0.00 0.00 0.00 0.00 0.00 0.00 0.00 0.00 0.00 0.00 0.00 0.00 0.00 0.00 0.00 0.00 0.00 0.00 0.00 0.00 0.00 0.00 0.00 0.00 0.00 0.00
0.00 0.00 0.00 0.00 0.00 0.00 0.00 0.00 0.00 0.00 0.00 0.00 0.00 0.00 0.00 0.00 0.00 0.00 0.00 0.00 0.00 0.00 0.00 0.00 0.00 0.00 0.00 0.00 0.00 0.00 0.00 0.00 0.00 0.00 0.00 0.00 0.00 0.00 0.00 0.00 0.00 0.00 0.00 0.00
0.00 0.00 0.00 0.00 0.00 0.00 0.00 0.00 0.00 0.00 0.00 0.00 0.00 0.00 0.00 0.00 0.00 0.00 0.00 0.00 0.00 0.00 0.00 0.00 0.00 0.00 0.00 0.00 0.00 0.00 0.00 0.00 0.00 0.00 0.00 0.00 0.00 0.00 0.00 0.00 0.00 0.00 0.00 0.00
0.00 0.00 0.00 0.00 0.00 0.00 0.00 0.00 0.00 0.00 0.00 0.00 0.00 0.00 0.00 0.00 0.00 0.00 0.00 0.00 0.00 0.00 0.00 0.00 0.00 0.00 0.00 0.00 0.00 0.00 0.00 0.00 0.00 0.00 0.00 0.00 0.00 0.00 0.00 0.00 0.00 0.00 0.00 0.00
0.00 0.00 0.00 0.00 0.00 0.00 0.00 0.00 0.00 0.00 0.00 0.00 0.00 0.00 0.00 0.00 0.00 0.00 0.00 0.00 0.00 0.00 0.00 0.00 0.00 0.00 0.00 0.00 0.00 0.00 0.00 0.00 0.00 0.00 0.00 0.00 0.00 0.00 0.00 0.00 0.00 0.00 0.00 0.00
0.00 0.00 0.00 0.00 0.00 0.00 0.00 0.00 0.00 0.00 0.00 0.00 0.00 0.00 0.00 0.00 0.00 0.00 0.00 0.00 0.00 0.00 0.00 0.00 0.00 0.00 0.00 0.00 0.00 0.00 0.00 0.00 0.00 0.00 0.00 0.00 0.00 0.00 0.00 0.00 0.00 0.00 0.00 0.00
0.00 0.00 0.00 0.00 0.00 0.00 0.00 0.00 0.00 0.00 0.00 0.00 0.00 0.00 0.00 0.00 0.00 0.00 0.00 0.00 0.00 0.00 0.00 0.00 0.00 0.00 0.00 0.00 0.00 0.00 0.00 0.00 0.00 0.00 0.00 0.00 0.00 0.00 0.00 0.00 0.00 0.00 0.00 0.00
0.00 0.00 0.00 0.00 0.00 0.00 0.00 0.00 0.00 0.00 0.00 0.00 0.00 0.00 0.00 0.00 0.00 0.00 0.00 0.00 0.00 0.00 0.00 0.00 0.00 0.00 0.00 0.00 0.00 0.00 0.00 0.00 0.00 0.00 0.00 0.00 0.00 0.00 0.00 0.00 0.00 0.00 0.00 0.00
0.00 0.00 0.00 0.00 0.00 0.00 0.00 0.00 0.00 0.00 0.00 0.00 0.00 0.00 0.00 0.00 0.00 0.00 0.00 0.00 0.00 0.00 0.00 0.00 0.00 0.00 0.00 0.00 0.00 0.00 0.00 0.00 0.00 0.00 0.00 0.00 0.00 0.00 0.00 0.00 0.00 0.00 0.00 0.00
0.00 0.00 0.00 0.00 0.00 0.00 0.00 0.00 0.00 0.00 0.00 0.00 0.00 0.00 0.00 0.00 0.00 0.00 0.00 0.00 0.00 0.00 0.00 0.00 0.00 0.00 0.00 0.00 0.00 0.00 0.00 0.00 0.00 0.00 0.00 0.00 0.00 0.00 0.00 0.00 0.00 0.00 0.00 0.00
0.00 0.00 0.00 0.00 0.00 0.00 0.00 0.00 0.00 0.00 0.00 0.00 0.00 0.00 0.00 0.00 0.00 0.00 0.00 0.00 0.00 0.00 0.00 0.00 0.00 0.00 0.00 0.00 0.00 0.00 0.00 0.00 0.00 0.00 0.00 0.00 0.00 0.00 0.00 0.00 0.00 0.00 0.00 0.00
0.00 0.00 0.00 0.00 0.00 0.00 0.00 0.00 0.00 0.00 0.00 0.00 0.00 0.00 0.00 0.00 0.00 0.00 0.00 0.00 0.00 0.00 0.00 0.00 0.00 0.00 0.00 0.00 0.00 0.00 0.00 0.00 0.00 0.00 0.00 0.00 0.00 0.00 0.00 0.00 0.00 0.00 0.00 0.00
0.00 0.00 0.00 0.00 0.00 0.00 0.00 0.00 0.00 0.00 0.00 0.00 0.00 0.00 0.00 0.00 0.00 0.00 0.00 0.00 0.00 0.00 0.00 0.00 0.00 0.00 0.00 0.00 0.00 0.00 0.00 0.00 0.00 0.00 0.00 0.00 0.00 0.00 0.00 0.00 0.00 0.00 0.00 0.00
0.00 0.00 0.00 0.00 0.00 0.00 0.00 0.00 0.00 0.00 0.00 0.00 0.00 0.00 0.00 0.00 0.00 0.00 0.00 0.00 0.00 0.00 0.00 0.00 0.00 0.00 0.00 0.00 0.00 0.00 0.00 0.00 0.00 0.00 0.00 0.00 0.00 0.00 0.00 0.00 0.00 0.00 0.00 0.00
0.00 0.00 0.00 0.00 0.00 0.00 0.00 0.00 0.00 0.00 0.00 0.00 0.00 0.00 0.00 0.00 0.00 0.00 0.00 0.00 0.00 0.00 0.00 0.00 0.00 0.00 0.00 0.00 0.00 0.00 0.00 0.00 0.00 0.00 0.00 0.00 0.00 0.00 0.00 0.00 0.00 0.00 0.00 0.00
0.00 0.00 0.00 0.00 0.00 0.00 0.00 0.00 0.00 0.00 0.00 0.00 0.00 0.00 0.00 0.00 0.00 0.00 0.00 0.00 0.00 0.00 0.00 0.00 0.00 0.00 0.00 0.00 0.00 0.00 0.00 0.00 0.00 0.00 0.00 0.00 0.00 0.00 0.00 0.00 0.00 0.00 0.00 0.00
MSLP
1009.70 1009.48 1009.17 1008.75 1008.20 1007.54 1006.78 1005.96 1005.10 1004.26 1003.49 1002.82 1002.29 1001.90 1001.66 1001.55 1001.55 1001.64 1001.81 1002.06 1002.38 1002.78 1003.27 1003.87 1004.57 1005.37 1006.25 1007.19 1008.15 1009.12 1010.07 1010.99 1011.87 1012.74 1013.59 1014.44 1015.28 1016.11 1016.91 1017.64 1018.27 1018.77 1019.11 1019.29
1008.94 1008.65 1008.25 1007.75 1007.14 1006.44 1005.68 1004.88 1004.10 1003.36 1002.71 1002.18 1001.78 1001.52 1001.40 1001.39 1001.48 1001.65 1001.90 1002.22 1002.61 1003.09 1003.67 1004.35 1005.13 1006.00 1006.94 1007.93 1008.92 1009.90 1010.85 1011.75 1012.61 1013.43 1014.24 1015.03 1015.81 1016.57 1017.30 1017.97 1018.54 1018.99 1019.28 1019.41
1008.11 1007.73 1007.25 1006.67 1006.00 1005.27 1004.51 1003.76 1003.06 1002.43 1001.92 1001.54 1001.30 1001.19 1001.20 1001.31 1001.50 1001.76 1002.09 1002.47 1002.93 1003.48 1004.12 1004.86 1005.71 1006.63 1007.63 1008.65 1009.67 1010.67 1011.62 1012.51 1013.35 1014.13 1014.89 1015.62 1016.33 1017.01 1017.66 1018.25 1018.75 1019.13 1019.37 1019.45
1007.24 1006.77 1006.20 1005.56 1004.85 1004.11 1003.38 1002.69 1002.09 1001.60 1001.24 1001.03 1000.96 1001.01 1001.17 1001.42 1001.72 1002.07 1002.46 1002.91 1003.41 1004.00 1004.68 1005.46 1006.34 1007.29 1008.31 1009.36 1010.40 1011.41 1012.36 1013.25 1014.06 1014.82 1015.52 1016.19 1016.82 1017.42 1017.98 1018.48 1018.90 1019.20 1019.38 1019.43
1006.35 1005.81 1005.19 1004.51 1003.79 1003.07 1002.39 1001.80 1001.31 1000.97 1000.79 1000.75 1000.86 1001.09 1001.41 1001.78 1002.19 1002.63 1003.08 1003.57 1004.11 1004.71 1005.40 1006.18 1007.06 1008.02 1009.04 1010.09 1011.13 1012.14 1013.09 1013.96 1014.76 1015.48 1016.14 1016.74 1017.29 1017.80 1018.27 1018.67 1019.00 1019.23 1019.35 1019.35
1005.51 1004.93 1004.29 1003.61 1002.92 1002.26 1001.67 1001.19 1000.85 1000.67 1000.66 1000.81 1001.09 1001.48 1001.94 1002.44 1002.95 1003.46 1003.96 1004.48 1005.02 1005.62 1006.29 1007.05 1007.90 1008.83 1009.83 1010.86 1011.89 1012.88 1013.81 1014.67 1015.43 1016.12 1016.72 1017.26 1017.73 1018.16 1018.53 1018.83 1019.07 1019.22 1019.28 1019.24
1004.76 1004.18 1003.56 1002.93 1002.31 1001.75 1001.29 1000.95 1000.77 1000.76 1000.91 1001.23 1001.67 1002.19 1002.77 1003.37 1003.95 1004.52 1005.06 1005.59 1006.12 1006.70 1007.34 1008.06 1008.87 1009.75 1010.70 1011.69 1012.67 1013.63 1014.53 1015.36 1016.09 1016.73 1017.28 1017.75 1018.15 1018.49 1018.76 1018.98 1019.13 1019.20 1019.20 1019.12
1004.11 1003.58 1003.04 1002.50 1002.01 1001.59 1001.28 1001.11 1001.08 1001.23 1001.53 1001.98 1002.54 1003.17 1003.83 1004.50 1005.14 1005.73 1006.29 1006.82 1007.35 1007.91 1008.51 1009.18 1009.93 1010.76 1011.65 1012.57 1013.51 1014.41 1015.26 1016.03 1016.72 1017.31 1017.80 1018.20 1018.53 1018.79 1018.98 1019.11 1019.18 1019.19 1019.12 1018.99
1003.58 1003.14 1002.72 1002.34 1002.01 1001.76 1001.62 1001.61 1001.75 1002.03 1002.45 1002.99 1003.62 1004.31 1005.02 1005.72 1006.38 1006.99 1007.56 1008.10 1008.62 1009.16 1009.73 1010.36 1011.06 1011.83 1012.65 1013.50 1014.36 1015.19 1015.98 1016.69 1017.31 1017.84 1018.27 1018.61 1018.87 1019.05 1019.17 1019.23 1019.23 1019.17 1019.06 1018.88
1003.14 1002.84 1002.58 1002.38 1002.25 1002.19 1002.24 1002.39 1002.66 1003.05 1003.54 1004.14 1004.80 1005.51 1006.23 1006.93 1007.59 1008.21 1008.79 1009.33 1009.85 1010.38 1010.94 1011.55 1012.20 1012.91 1013.66 1014.44 1015.21 1015.96 1016.66 1017.30 1017.84 1018.30 1018.67 1018.94 1019.14 1019.26 1019.32 1019.32 1019.27 1019.16 1019.00 1018.79
1002.76 1002.63 1002.56 1002.57 1002.64 1002.79 1003.01 1003.31 1003.69 1004.16 1004.70 1005.31 1005.97 1006.66 1007.35 1008.03 1008.69 1009.31 1009.89 1010.45 1010.99 1011.53 1012.09 1012.68 1013.30 1013.96 1014.65 1015.34 1016.03 1016.68 1017.29 1017.83 1018.29 1018.68 1018.97 1019.19 1019.33 1019.40 1019.42 1019.38 1019.28 1019.14 1018.94 1018.71
1002.44 1002.48 1002.61 1002.83 1003.11 1003.44 1003.83 1004.25 1004.73 1005.25 1005.81 1006.41 1007.04 1007.69 1008.34 1009.00 1009.64 1010.26 1010.86 1011.44 1012.01 1012.58 1013.15 1013.73 1014.33 1014.95 1015.56 1016.17 1016.77 1017.32 1017.83 1018.27 1018.65 1018.95 1019.19 1019.35 1019.44 1019.48 1019.46 1019.39 1019.27 1019.10 1018.88 1018.63
1002.15 1002.36 1002.69 1003.09 1003.56 1004.06 1004.59 1005.12 1005.67 1006.22 1006.79 1007.37 1007.97 1008.58 1009.20 1009.83 1010.46 1011.09 1011.71 1012.32 1012.92 1013.52 1014.11 1014.69 1015.27 1015.84 1016.39 1016.92 1017.42 1017.87 1018.27 1018.63 1018.91 1019.15 1019.32 1019.43 1019.48 1019.49 1019.45 1019.36 1019.22 1019.04 1018.81 1018.54
1001.91 1002.28 1002.77 1003.34 1003.96 1004.60 1005.23 1005.86 1006.46 1007.04 1007.61 1008.18 1008.75 1009.34 1009.94 1010.56 1011.19 1011.83 1012.48 1013.13 1013.76 1014.38 1014.99 1015.56 1016.12 1016.64 1017.12 1017.57 1017.97 1018.33 1018.64 1018.90 1019.11 1019.28 1019.39 1019.46 1019.49 1019.47 1019.41 1019.31 1019.16 1018.97 1018.73 1018.45
1001.76 1002.25 1002.86 1003.55 1004.28 1005.02 1005.75 1006.43 1007.08 1007.70 1008.28 1008.85 1009.42 1010.00 1010.61 1011.23 1011.88 1012.55 1013.22 1013.89 1014.55 1015.19 1015.79 1016.35 1016.87 1017.34 1017.75 1018.12 1018.44 1018.72 1018.94 1019.13 1019.28 1019.39 1019.46 1019.49 1019.49 1019.45 1019.37 1019.25 1019.09 1018.89 1018.64 1018.36
1001.73 1002.30 1002.98 1003.75 1004.55 1005.35 1006.13 1006.87 1007.56 1008.20 1008.82 1009.41 1010.00 1010.61 1011.23 1011.89 1012.56 1013.25 1013.95 1014.64 1015.30 1015.94 1016.52 1017.06 1017.53 1017.95 1018.30 1018.60 1018.85 1019.05 1019.22 1019.35 1019.44 1019.51 1019.54 1019.55 1019.52 1019.46 1019.36 1019.22 1019.04 1018.82 1018.56 1018.26
1001.85 1002.45 1003.17 1003.96 1004.79 1005.62 1006.43 1007.19 1007.92 1008.60 1009.25 1009.89 1010.53 1011.18 1011.85 1012.53 1013.24 1013.95 1014.67 1015.36 1016.02 1016.63 1017.19 1017.68 1018.11 1018.47 1018.77 1019.01 1019.21 1019.36 1019.48 1019.57 1019.64 1019.67 1019.68 1019.67 1019.61 1019.52 1019.39 1019.23 1019.02 1018.77 1018.49 1018.18
1002.14 1002.74 1003.44 1004.22 1005.04 1005.87 1006.67 1007.46 1008.21 1008.93 1009.63 1010.33 1011.02 1011.72 1012.44 1013.17 1013.91 1014.64 1015.35 1016.03 1016.67 1017.25 1017.77 1018.21 1018.59 1018.91 1019.16 1019.37 1019.53 1019.66 1019.76 1019.83 1019.87 1019.90 1019.89 1019.84 1019.76 1019.64 1019.48 1019.28 1019.03 1018.76 1018.45 1018.11
1002.60 1003.17 1003.84 1004.57 1005.35 1006.14 1006.93 1007.72 1008.49 1009.24 1009.99 1010.74 1011.49 1012.25 1013.02 1013.78 1014.54 1015.28 1015.98 1016.64 1017.24 1017.78 1018.25 1018.65 1018.99 1019.27 1019.49 1019.68 1019.83 1019.95 1020.04 1020.11 1020.14 1020.15 1020.13 1020.06 1019.95 1019.80 1019.60 1019.36 1019.08 1018.76 1018.43 1018.07
1003.22 1003.74 1004.35 1005.02 1005.74 1006.49 1007.25 1008.02 1008.80 1009.59 1010.37 1011.17 1011.97 1012.77 1013.57 1014.36 1015.12 1015.85 1016.53 1017.16 1017.72 1018.21 1018.64 1019.00 1019.30 1019.55 1019.76 1019.94 1020.09 1020.21 1020.31 1020.38 1020.41 1020.41 1020.37 1020.28 1020.14 1019.95 1019.72 1019.44 1019.13 1018.78 1018.42 1018.05
1003.96 1004.43 1004.97 1005.58 1006.24 1006.94 1007.67 1008.42 1009.20 1010.00 1010.81 1011.63 1012.47 1013.30 1014.11 1014.90 1015.66 1016.36 1017.01 1017.60 1018.11 1018.56 1018.95 1019.27 1019.55 1019.79 1019.99 1020.17 1020.32 1020.44 1020.54 1020.61 1020.64 1020.63 1020.57 1020.45 1020.28 1020.07 1019.80 1019.49 1019.15 1018.79 1018.41 1018.03
1004.78 1005.21 1005.70 1006.25 1006.85 1007.51 1008.20 1008.94 1009.71 1010.51 1011.33 1012.17 1013.01 1013.85 1014.66 1015.44 1016.17 1016.84 1017.45 1017.99 1018.45 1018.86 1019.21 1019.51 1019.76 1019.99 1020.18 1020.36 1020.51 1020.63 1020.73 1020.79 1020.80 1020.77 1020.68 1020.54 1020.34 1020.09 1019.81 1019.48 1019.13 1018.77 1018.39 1018.00
1005.63 1006.03 1006.48 1006.99 1007.56 1008.18 1008.86 1009.58 1010.34 1011.14 1011.96 1012.79 1013.63 1014.45 1015.24 1015.98 1016.67 1017.30 1017.87 1018.36 1018.78 1019.15 1019.46 1019.74 1019.97 1020.18 1020.37 1020.53 1020.67 1020.77 1020.85 1020.88 1020.87 1020.80 1020.68 1020.51 1020.29 1020.02 1019.72 1019.40 1019.05 1018.69 1018.32 1017.95
1006.46 1006.84 1007.28 1007.78 1008.33 1008.94 1009.61 1010.32 1011.07 1011.86 1012.67 1013.49 1014.31 1015.10 1015.85 1016.56 1017.21 1017.79 1018.30 1018.75 1019.14 1019.47 1019.75 1019.99 1020.21 1020.39 1020.55 1020.69 1020.80 1020.87 1020.91 1020.90 1020.84 1020.73 1020.58 1020.37 1020.13 1019.85 1019.55 1019.23 1018.90 1018.55 1018.20 1017.84
1007.21 1007.60 1008.04 1008.55 1009.11 1009.73 1010.40 1011.11 1011.87 1012.65 1013.44 1014.24 1015.03 1015.78 1016.50 1017.16 1017.76 1018.30 1018.77 1019.18 1019.53 1019.83 1020.08 1020.29 1020.47 1020.63 1020.75 1020.85 1020.91 1020.93 1020.91 1020.84 1020.73 1020.58 1020.38 1020.14 1019.88 1019.59 1019.29 1018.98 1018.67 1018.34 1018.01 1017.65
1007.82 1008.23 1008.71 1009.24 1009.83 1010.47 1011.16 1011.89 1012.64 1013.42 1014.20 1014.98 1015.74 1016.46 1017.14 1017.76 1018.33 1018.83 1019.27 1019.64 1019.96 1020.23 1020.45 1020.63 1020.77 1020.88 1020.96 1021.00 1021.00 1020.95 1020.87 1020.74 1020.56 1020.35 1020.11 1019.84 1019.56 1019.26 1018.96 1018.66 1018.36 1018.04 1017.71 1017.35
1008.26 1008.71 1009.23 1009.80 1010.43 1011.10 1011.82 1012.56 1013.33 1014.11 1014.88 1015.64 1016.38 1017.08 1017.73 1018.33 1018.86 1019.34 1019.75 1020.10 1020.39 1020.64 1020.83 1020.97 1021.08 1021.14 1021.15 1021.13 1021.05 1020.94 1020.78 1020.58 1020.34 1020.07 1019.78 1019.48 1019.18 1018.87 1018.57 1018.27 1017.96 1017.65 1017.31 1016.93
Thickness
5520 5527 5522 5515 5512 5504 5493 5495 5498 5517 5520 5526 5521 5517 5519 5521 5526 5535 5547 5553 5559 5568 5575 5578 5580 5579 5576 5574 5573 5574 5574 5570 5564 5556 5547 5538 5530 5521 5513 5505 5498 5493 5487 5481
5524 5534 5536 5529 5529 5522 5513 5505 5504 5510 5517 5525 5520 5515 5515 5519 5525 5535 5546 5551 5555 5560 5564 5566 5567 5566 5566 5566 5566 5566 5564 5557 5550 5542 5534 5526 5518 5510 5501 5493 5487 5481 5475 5470
5536 5548 5541 5544 5541 5535 5530 5527 5523 5521 5533 5532 5522 5517 5518 5522 5531 5541 5549 5551 5553 5556 5558 5559 5559 5559 5560 5559 5559 5556 5551 5544 5537 5529 5521 5513 5505 5498 5490 5483 5476 5470 5465 5459
5529 5540 5550 5554 5551 5546 5543 5545 5543 5543 5546 5543 5538 5534 5532 5533 5540 5549 5554 5555 5554 5555 5554 5553 5553 5554 5554 5553 5550 5544 5538 5531 5524 5516 5508 5501 5494 5487 5480 5473 5466 5460 5454 5448
5530 5543 5553 5559 5557 5551 5548 5552 5557 5557 5559 5557 5552 5549 5548 5537 5544 5555 5559 5558 5555 5552 5550 5550 5549 5549 5548 5543 5537 5532 5525 5518 5511 5504 5498 5490 5483 5476 5468 5462 5455 5449 5442 5437
5535 5544 5556 5563 5566 5560 5556 5566 5566 5565 5568 5567 5561 5562 5558 5538 5550 5556 5554 5551 5548 5546 5544 5543 5541 5540 5538 5531 5525 5519 5512 5505 5499 5493 5487 5480 5472 5464 5457 5450 5443 5438 5432 5427
5539 5546 5561 5572 5569 5568 5570 5573 5571 5569 5572 5574 5571 5561 5541 5538 5543 5546 5544 5541 5540 5538 5535 5533 5532 5531 5527 5520 5512 5505 5500 5494 5487 5481 5474 5467 5460 5452 5445 5439 5434 5428 5423 5417
5549 5553 5565 5576 5573 5573 5575 5573 5571 5572 5570 5569 5554 5541 5537 5536 5535 5535 5533 5533 5532 5530 5525 5523 5522 5520 5514 5505 5499 5494 5488 5481 5474 5467 5460 5454 5448 5441 5435 5429 5425 5419 5414 5409
5562 5571 5580 5575 5575 5576 5570 5571 5572 5570 5564 5557 5549 5540 5534 5531 5529 5528 5526 5525 5523 5522 5518 5514 5511 5509 5503 5493 5488 5483 5476 5469 5462 5455 5448 5443 5438 5432 5425 5419 5414 5410 5405 5399
5562 5575 5578 5578 5577 5571 5563 5563 5564 5562 5558 5555 5547 5537 5532 5527 5524 5521 5519 5518 5516 5514 5511 5504 5500 5496 5491 5483 5478 5472 5465 5457 5451 5445 5439 5433 5427 5421 5415 5410 5404 5399 5393 5386
5563 5574 5578 5578 5570 5562 5556 5556 5555 5553 5550 5545 5540 5533 5528 5523 5518 5515 5513 5511 5509 5505 5500 5493 5488 5483 5477 5472 5468 5462 5455 5449 5442 5436 5430 5423 5416 5410 5405 5398 5391 5385 5380 5372
5570 5574 5574 5573 5560 5554 5553 5550 5547 5544 5539 5535 5531 5525 5521 5516 5511 5508 5505 5501 5498 5495 5490 5483 5478 5471 5466 5462 5458 5453 5447 5440 5433 5427 5420 5414 5408 5402 5393 5386 5379 5372 5364 5355
5568 5563 5561 5555 5549 5547 5546 5543 5540 5537 5532 5527 5521 5517 5512 5507 5502 5499 5496 5494 5490 5485 5479 5473 5467 5460 5455 5451 5448 5443 5437 5430 5424 5417 5411 5405 5398 5392 5386 5378 5368 5360 5351 5342
5558 5555 5556 5549 5546 5541 5539 5535 5531 5527 5523 5518 5513 5508 5504 5499 5494 5490 5486 5482 5478 5473 5467 5462 5456 5450 5444 5440 5436 5431 5425 5418 5413 5407 5400 5394 5387 5381 5375 5367 5360 5352 5342 5331
5552 5553 5554 5544 5535 5532 5530 5527 5523 5518 5513 5508 5505 5501 5498 5493 5486 5479 5475 5472 5467 5462 5456 5451 5445 5438 5433 5429 5425 5420 5415 5409 5402 5396 5389 5383 5377 5370 5364 5356 5348 5341 5332 5320
5539 5540 5538 5534 5530 5526 5525 5524 5520 5512 5507 5502 5498 5493 5488 5483 5476 5471 5466 5463 5460 5453 5446 5441 5435 5428 5424 5420 5415 5410 5404 5396 5390 5386 5380 5374 5367 5360 5352 5344 5335 5327 5317 5306
5532 5525 5523 5521 5523 5524 5523 5521 5516 5508 5502 5497 5489 5483 5478 5474 5468 5462 5457 5454 5449 5443 5437 5432 5425 5419 5414 5409 5405 5400 5393 5386 5379 5375 5370 5363 5356 5349 5340 5331 5322 5312 5300 5287
5543 5542 5537 5535 5530 5524 5519 5513 5507 5502 5495 5488 5482 5478 5475 5471 5463 5455 5448 5443 5437 5431 5426 5421 5416 5410 5404 5399 5394 5389 5383 5377 5371 5365 5359 5351 5345 5336 5327 5317 5308 5296 5284 5270
5536 5535 5533 5531 5527 5522 5515 5508 5500 5494 5486 5482 5479 5474 5468 5461 5454 5447 5441 5437 5431 5423 5416 5411 5406 5401 5395 5389 5384 5379 5373 5367 5361 5354 5347 5340 5332 5324 5314 5303 5292 5280 5267 5255
5529 5528 5527 5524 5519 5514 5507 5500 5492 5486 5481 5477 5471 5464 5456 5449 5444 5439 5434 5428 5422 5416 5408 5403 5397 5392 5386 5380 5374 5370 5364 5357 5351 5344 5337 5329 5320 5311 5300 5288 5276 5263 5251 5242
5521 5519 5516 5513 5508 5503 5498 5493 5488 5480 5473 5470 5466 5458 5449 5440 5435 5430 5425 5417 5408 5404 5399 5394 5388 5383 5377 5372 5366 5360 5354 5348 5341 5334 5326 5317 5307 5297 5285 5273 5261 5249 5240 5235
5511 5509 5506 5502 5498 5492 5487 5483 5479 5473 5466 5460 5454 5446 5438 5431 5425 5420 5415 5409 5401 5396 5391 5385 5380 5375 5369 5363 5357 5351 5345 5338 5330 5323 5314 5305 5294 5283 5271 5259 5248 5239 5234 5231
5501 5498 5495 5492 5488 5483 5477 5472 5467 5463 5457 5450 5444 5437 5432 5425 5420 5415 5405 5398 5393 5387 5382 5378 5373 5366 5360 5354 5348 5341 5334 5327 5320 5311 5302 5291 5280 5269 5257 5246 5238 5233 5231 5232
5489 5486 5482 5479 5475 5471 5465 5458 5454 5449 5444 5438 5432 5427 5422 5415 5408 5403 5398 5391 5385 5379 5375 5370 5364 5357 5350 5344 5338 5332 5325 5317 5308 5299 5289 5278 5266 5254 5244 5237 5232 5231 5232 5234
5477 5473 5469 5466 5465 5460 5452 5445 5440 5435 5430 5423 5417 5413 5409 5405 5400 5393 5388 5382 5376 5370 5365 5360 5354 5348 5341 5336 5329 5322 5315 5306 5297 5288 5277 5264 5251 5241 5234 5230 5228 5230 5233 5238
5465 5462 5460 5459 5453 5447 5443 5439 5434 5427 5420 5413 5405 5400 5396 5392 5387 5381 5376 5370 5365 5360 5354 5349 5344 5339 5333 5327 5320 5313 5305 5296 5286 5274 5261 5249 5238 5231 5227 5226 5228 5231 5236 5242
5453 5450 5446 5442 5438 5437 5435 5431 5426 5419 5413 5406 5397 5389 5385 5380 5375 5370 5365 5360 5355 5350 5345 5340 5336 5330 5325 5318 5312 5305 5296 5286 5274 5261 5248 5237 5228 5224 5224 5226 5230 5235 5241 5246